Ana Sayfa
METAR-TAF:

METAR-TAF

Havaalanları :

Webster_Field

St. Inigoes, Maryland, Amerika Birleşik Devletleri

Enlem: 38-08-56N, Boylam: 076-25-12W, yükseklik: 6 m

Güncel hava durumu gözlemi

Rapor saat 12:53 UTC de 47 dakika önce yapıldı.
Rüzgar batıdan 8 kt
Sıcaklık 23°C
Nem 61%
Basınç 1013 hPa
Görüş mesafesi: 16.1 km
Açık gökyüzü

METAR: KNUI 281253Z AUTO 26008KT 10SM CLR 23/15 A2991 RMK AO2 SLP129 T02280150

Saat: 09:40 (13:40 UTC)


TAF: eksik

4.000'den fazla havaalanı için hava durumu gözlemleri ve tahminleri (METAR ve TAF raporları).

Kullanılabilir istasyonlar harita üzerinde sarı ve kırmızı noktalarla gösterilir.

İstasyonun adını görmek için fareyi noktanın üzerinde gezdirin.

Sonrasında hava gözlem ve tahminlerini görmek için tıklayın.

Haritayı değiştirmek için: yaklaştırmak için siyah artı işaretli yeşil düğmeye ve uzaklaştırmak için de eksi işaretli düğmeye hızla tıklayın; bitişik haritalar için yeşil okları kullanın.


METAR-TAF: